Weather History for KMVN - November, 2012

Change the Weather History Date:

Monday, November 26, 2012

  Actual Average (WUND) Record (WUND)
Temperature  
Mean Temperature 32 °F -  
Max Temperature 37 °F - - (-1)
Min Temperature 28 °F - - (-1)
Degree Days  
Heating Degree Days 32    
Moisture  
Dew Point 28 °F    
Average Humidity 77    
Maximum Humidity 93    
Minimum Humidity 70    
Precipitation  
Precipitation 0.00 in - - ()
Sea Level Pressure  
Sea Level Pressure 30.09 in    
Wind  
Wind Speed 5 mph (NNE)    
Max Wind Speed 10 mph    
Max Gust Speed -    
Visibility 10 miles    
Events      
Averages and records for this station are not official NWS values.
T = Trace of Precipitation, MM = Missing Value Source: NWS Daily Summary

Daily Weather History Graph

Daily Weather History Graph

Search for Another Location

Airport or City:

Trip Planner

Search our weather history database for the weather conditions in past years. The results will help you decide how hot, cold, wet, or windy it might be!

Date:

Astronomy

Nov. 26, 2012 Rise Set
Actual Time 6:49 AM CST 4:36 PM CST
Civil Twilight 6:20 AM CST 5:05 PM CST
Nautical Twilight 5:47 AM CST 5:38 PM CST
Astronomical Twilight 5:15 AM CST 6:09 PM CST
Moon 3:28 PM CST 5:00 AM CST
Length of Visible Light 10h 45m
Length of Day
9h 47m
Waxing Gibbous, 97% of the Moon is Illuminated
Nov 26
Waxing Gibbous
Nov 28
Full
Dec 6
Last Quarter
Dec 13
New
Dec 19
First Quarter

Hourly Weather History & Observations

Time (CST) Temp. Windchill Dew Point Humidity Pressure Visibility Wind Dir Wind Speed Gust Speed Precip Events Conditions
12:15 AM 28.4 °F - 26.6 °F 93% 30.08 in 10.0 mi Calm Calm - N/A   Clear
12:35 AM 30.2 °F 26.7 °F 26.6 °F 86% 30.08 in 10.0 mi North 3.5 mph - N/A   Clear
12:55 AM 28.4 °F 24.6 °F 24.8 °F 86% 30.07 in 10.0 mi North 3.5 mph - N/A   Clear
1:15 AM 28.4 °F 24.6 °F 23.0 °F 80% 30.08 in 10.0 mi NNE 3.5 mph - N/A   Clear
1:35 AM 28.4 °F 23.3 °F 26.6 °F 93% 30.08 in 10.0 mi NNE 4.6 mph - N/A   Clear
1:55 AM 33.8 °F 29.6 °F 28.4 °F 81% 30.08 in 10.0 mi NNE 4.6 mph - N/A   Clear
2:15 AM 35.6 °F 31.7 °F 28.4 °F 75% 30.08 in 10.0 mi NNE 4.6 mph - N/A   Clear
2:35 AM 35.6 °F 31.7 °F 28.4 °F 75% 30.09 in 10.0 mi NNE 4.6 mph - N/A   Clear
2:55 AM 37.4 °F 32.8 °F 28.4 °F 70% 30.08 in 10.0 mi NNE 5.8 mph - N/A   Clear
3:15 AM 35.6 °F 30.7 °F 26.6 °F 70% 30.08 in 10.0 mi NNE 5.8 mph - N/A   Clear
3:35 AM 33.8 °F 29.6 °F 26.6 °F 75% 30.08 in 10.0 mi NNE 4.6 mph - N/A   Clear
3:55 AM 33.8 °F 28.6 °F 26.6 °F 75% 30.09 in 10.0 mi NNE 5.8 mph - N/A   Clear
4:15 AM 35.6 °F 30.7 °F 26.6 °F 70% 30.09 in 10.0 mi NNE 5.8 mph - N/A   Clear
4:35 AM 35.6 °F 29.2 °F 28.4 °F 75% 30.09 in 10.0 mi NNE 8.1 mph - N/A   Clear
4:55 AM 35.6 °F 28.6 °F 28.4 °F 75% 30.09 in 10.0 mi NNE 9.2 mph - N/A   Clear
5:15 AM 35.6 °F 29.9 °F 28.4 °F 75% 30.10 in 10.0 mi NNE 6.9 mph - N/A   Clear
5:35 AM 35.6 °F 29.2 °F 28.4 °F 75% 30.10 in 10.0 mi NNE 8.1 mph - N/A   Clear
5:55 AM 35.6 °F 28.6 °F 28.4 °F 75% 30.11 in 10.0 mi NNE 9.2 mph - N/A   Mostly Cloudy
6:15 AM 35.6 °F 28.6 °F 28.4 °F 75% 30.11 in 10.0 mi NE 9.2 mph - N/A   Overcast
6:35 AM 37.4 °F 30.3 °F 28.4 °F 70% 30.11 in 10.0 mi NE 10.4 mph - N/A   Overcast
6:55 AM 37.4 °F 31.4 °F 30.2 °F 75% 30.12 in 10.0 mi NE 8.1 mph - N/A   Overcast
7:15 AM 37.4 °F 31.4 °F 28.4 °F 70% 30.13 in 10.0 mi NNE 8.1 mph - N/A   Overcast